Flag for U.S.A. Weather past 2 weeks in Vallejo, California, U.S.A.

Now
64 °F

Clear.


Feels Like: 64 °F
Forecast: 61 / 76 °F
Wind: 6 mph from Northwest

Location: Napa County Airport

Current Time: Sep 18, 2014 at 11:09:35 PM

Latest Report: Sep 18, 2014 at 9:54 PM


Visibility: 10 mi

Pressure: 29.85 "Hg

Humidity: 90%

Dew point: 61 °F

Location of VallejoLocation

Historic Weather in Vallejo — Graph

°F

Vallejo temperature yesterday

Maximum temperature yesterday: 80 °F (at 2:54 PM)
Minimum temperature yesterday: 57 °F (at 2:54 AM)
Average temperature yesterday: 67 °F

Past Weeks' High & Low Weather Summary

 TemperatureHumidityPressure
High92 °F (Sep 10, 3:54 PM)100% (Sep 6, 6:54 AM)29.98 "Hg (Sep 6, 6:54 AM)
Low47 °F (Sep 7, 6:54 AM)24% (Sep 10, 3:54 PM)29.69 "Hg (Sep 4, 4:54 PM)
Average65 °F76%29.82 "Hg
* Reported Sep 3 9:54 PM — Sep 18 9:54 PM, Vallejo, Weather by CustomWeather, © 2014

Note: Actual official high and low records may vary slightly from our data, if they occured in-between our weather recording intervals... More about our weather records

Advertising

Vallejo weather history for previous 24 hours

 ConditionsComfort  
Time TempWeatherWind HumidityBarometerVisibility
9:54 PM
Sep 18
64 °FClear.6 mph90%29.85 "Hg10 mi
8:54 PM66 °FClear.7 mph84%29.84 "Hg10 mi
7:54 PM69 °FPassing clouds.12 mph76%29.82 "Hg10 mi
6:54 PM70 °FSunny.12 mph79%29.81 "Hg10 mi
5:54 PM74 °FSunny.12 mph69%29.80 "Hg10 mi
4:54 PM75 °FSunny.13 mph64%29.80 "Hg10 mi
3:54 PM77 °FSunny.15 mph56%29.80 "Hg10 mi
2:54 PM75 °FPartly sunny.14 mph62%29.82 "Hg10 mi
1:54 PM74 °FOvercast.13 mph67%29.84 "Hg10 mi
12:54 PM77 °FOvercast.13 mph60%29.85 "Hg10 mi
11:54 AM76 °FOvercast.15 mph67%29.85 "Hg10 mi
10:54 AM73 °FPassing clouds.13 mph76%29.84 "Hg10 mi
9:54 AM69 °FMostly cloudy.8 mph87%29.83 "Hg10 mi
9:04 AM67 °FMostly cloudy.8 mph97%29.85 "Hg10 mi
8:54 AM67 °FCloudy.5 mph97%29.83 "Hg10 mi
8:01 AM65 °FLight rain. Mostly cloudy.8 mph97%29.83 "Hg7 mi
6:54 AM66 °FMostly cloudy.8 mph96%29.78 "Hg10 mi
5:54 AM66 °FLight rain. Fog.8 mph96%29.77 "Hg5 mi
5:02 AM67 °FMostly cloudy.5 mph93%29.78 "Hg10 mi
4:54 AM67 °FOvercast.6 mph93%29.75 "Hg10 mi
3:54 AM67 °FMostly cloudy.7 mph90%29.75 "Hg10 mi
2:54 AM67 °FMostly cloudy.12 mph93%29.75 "Hg10 mi
1:54 AM67 °FOvercast.15 mph93%29.75 "Hg10 mi
12:54 AM67 °FMostly cloudy.8 mph93%29.75 "Hg10 mi
11:54 PM
Sep 17
67 °FFog.14 mph97%29.75 "Hg5 mi
Weather by CustomWeather, © 2014

See weather overviewHow to use our weather pages